Location: Hawaiian Village Mobile Home Park
(32.8359°N, 116.9792°W)
Time: 11:07:48
(UTC+00:00)

Cosmos 1441 Rocket - Pass Details

Date: 01 August 2021
Orbit: 495 x 538 km, 81.1° (Epoch: 16 September)

Event Time Altitude Azimuth Distance (km) Brightness Sun altitude
Rises 12:06:51 0° 348° (NNW) 2,680 7.1 -11.2°
Reaches altitude 10° 12:09:01 10° 345° (NNW) 1,791 6.1 -10.8°
Maximum altitude 12:12:55 64° 264° (W) 598 3.2 -10.1°
Drops below altitude 10° 12:16:49 10° 183° (S) 1,789 5.6 -9.4°
Sets 12:18:59 0° 180° (S) 2,676 6.5 -9.0°
